Flag for Germany Weather past 2 weeks in Hoyerswerda, Saxony, Germany

Now
27 °F

Light snow. Low clouds.


Feels Like: 23 °F
Forecast: 12 / 27 °F
Wind: 3 mph from West

Location: Cottbus

Current Time: Dec 29, 2014 at 3:34:46 AM

Latest Report: Dec 29, 2014 at 3:00 AM


Visibility: 2 mi

Pressure: 30.28 "Hg

Humidity: 87%

Dew point: 24 °F

Location of HoyerswerdaLocation

Historic Weather in Hoyerswerda — Graph

°F

Hoyerswerda temperature yesterday

Maximum temperature yesterday: 26 °F (at 11:00 PM)
Minimum temperature yesterday: 17 °F (at 5:00 AM)
Average temperature yesterday: 20 °F

Past Weeks' High & Low Weather Summary

 TemperatureHumidityPressure
High55 °F (Dec 19, 8:00 AM)100% (Dec 14, 9:00 PM)30.34 "Hg (Dec 14, 9:00 PM)
Low17 °F (Dec 28, 5:00 AM)60% (Dec 15, 2:00 PM)29.68 "Hg (Dec 17, 8:00 PM)
Average41 °F83%29.96 "Hg
* Reported Dec 14 2:00 AM — Dec 29 2:00 AM, Hoyerswerda, Weather by CustomWeather, © 2014

Note: Actual official high and low records may vary slightly from our data, if they occured in-between our weather recording intervals... More about our weather records

Advertising

Hoyerswerda weather history for previous 24 hours

 ConditionsComfort  
Time TempWeatherWind HumidityBarometerVisibility
2:00 AM
Dec 29
28 °FLight snow. Low clouds.3 mph94%30.29 "Hg2 mi
1:00 AM27 °FLight snow. Low clouds.3 mph95%30.30 "Hg1 mi
12:00 AM26 °FLow clouds.3 mph93%30.32 "Hg3 mi
11:00 PM
Dec 28
26 °FLow clouds.3 mph95%30.34 "Hg3 mi
10:00 PM25 °FLow clouds.3 mph95%30.34 "Hg4 mi
9:00 PM25 °FFog.5 mph94%30.34 "Hg3 mi
8:00 PM24 °FFog.3 mph95%30.34 "Hg3 mi
7:00 PM23 °FFog.2 mph95%30.33 "Hg2 mi
6:00 PM22 °FFog.2 mph91%30.31 "Hg3 mi
5:00 PM22 °FFog.1 mph89%30.30 "Hg4 mi
4:00 PM21 °FFog.2 mph85%30.28 "Hg4 mi
3:00 PM22 °FOvercast.2 mph81%30.26 "Hg5 mi
2:00 PM22 °FOvercast.2 mph81%30.24 "Hg6 mi
1:00 PM22 °FScattered clouds.2 mph72%30.22 "Hg6 mi
12:00 PM20 °FPartly sunny.2 mph77%30.22 "Hg6 mi
11:00 AM19 °FOvercast.2 mph76%30.20 "Hg4 mi
10:00 AM19 °FOvercast.2 mph76%30.18 "Hg6 mi
9:00 AM18 °FOvercast.1 mph80%30.15 "Hg6 mi
8:00 AM18 °FLow clouds.2 mph80%30.11 "Hg6 mi
7:00 AM18 °FLight snow. Low clouds.3 mph81%30.08 "Hg4 mi
6:00 AM17 °FSnow flurries. Low clouds.3 mph83%30.05 "Hg3 mi
5:00 AM17 °FSnow flurries. Low clouds.6 mph81%30.02 "Hg4 mi
4:00 AM18 °FOvercast.6 mph80%29.99 "Hg4 mi
3:00 AM18 °FFog.5 mph81%29.97 "Hg4 mi
Weather by CustomWeather, © 2014

See weather overviewHow to use our weather pages